Home   Weather   Pokhara   Past weeks

Flag for Nepal Past Weather in Pokhara, Nepal — Yesterday and Last 2 Weeks

Now
66 °F

Haze.


Feels Like: 66 °F
Forecast: 47 / 79 °F
Wind: 5 mph from South

Location: Kathmandu Airport

Current Time: Jan 24, 2017 at 1:05:25 pm

Latest Report: Jan 24, 2017 at 12:35 pm


Visibility: 3 mi

Pressure: 30.24 "Hg (27.39 "Hg at 847m altitude)

Humidity: 43%

Dew Point: 43 °F

Location of PokharaLocation

Past Weather in Pokhara — Graph

°F

Pokhara Temperature Yesterday

Maximum temperature yesterday: 70 °F (at 2:35 pm)
Minimum temperature yesterday: 39 °F (at 5:35 am)
Average temperature yesterday: 54 °F

High & Low Weather Summary for the Past Weeks

 TemperatureHumidityPressure
High72 °F (Jan 20, 2:05 pm)100% (Jan 24, 6:05 am)30.33 "Hg (Jan 24, 6:05 am)
Low34 °F (Jan 14, 6:05 am)9% (Jan 20, 2:05 pm)29.95 "Hg (Jan 9, 5:05 pm)
Average50 °F64%30.12 "Hg
* Reported Jan 9 11:05 am — Jan 24 11:35 am, Pokhara, Weather by CustomWeather, © 2017

Note: Actual official high and low records may vary slightly from our data, if they occured in-between our weather recording intervals... More about our weather records

Advertising

Pokhara Weather History for the Previous 24 Hours

Scroll right to see more
 ConditionsComfort  
Time TempWeatherWind HumidityBarometerVisibility
11:35 am
Tue, Jan 24
63 °FHaze.5 mph52%30.27 "Hg2 mi
11:05 am61 °FHaze.3 mph55%30.30 "Hg2 mi
10:35 am59 °FHaze.3 mph63%30.30 "Hg1 mi
10:05 am55 °FFog.2 mph72%30.30 "Hg1 mi
9:35 am52 °FFog.2 mph77%30.30 "Hg1 mi
9:05 am50 °FFog.3 mph82%30.27 "Hg1 mi
8:35 am46 °FFog.3 mph87%30.27 "Hg1 mi
8:05 am43 °FFog.3 mph93%30.24 "Hg1 mi
7:35 am43 °FFog.2 mph93%30.21 "Hg1 mi
7:05 am41 °FFog.3 mph93%30.21 "Hg1 mi
6:35 am41 °FFog.2 mph93%30.18 "Hg2 mi
6:05 am41 °FFog.2 mph100%30.18 "Hg2 mi
5:35 am41 °FFog.3 mph93%30.18 "Hg2 mi
4:35 am41 °FFog.2 mph93%30.15 "Hg2 mi
3:35 am43 °FFog.2 mph93%30.15 "Hg2 mi
2:35 am43 °FFog.No wind93%30.15 "Hg2 mi
1:35 am46 °FFog.2 mph87%30.18 "Hg2 mi
12:35 am45 °FFog.6 mph93%30.18 "Hg2 mi
12:05 am46 °FFog.3 mph87%30.18 "Hg2 mi
11:35 pm
Mon, Jan 23
48 °FFog.3 mph82%30.18 "Hg2 mi
11:05 pm48 °FFog.3 mph82%30.18 "Hg2 mi
10:35 pm50 °FFog.2 mph76%30.18 "Hg3 mi
10:05 pm48 °FFog.3 mph82%30.15 "Hg3 mi
9:35 pm50 °FFog.2 mph82%30.15 "Hg3 mi
9:05 pm52 °FFog.3 mph77%30.15 "Hg3 mi
8:35 pm52 °FFog.5 mph77%30.15 "Hg3 mi
8:05 pm55 °FFog.3 mph72%30.15 "Hg3 mi
7:35 pm55 °FFog.5 mph72%30.12 "Hg3 mi
7:05 pm57 °FPassing clouds.2 mph67%30.12 "Hg4 mi
6:35 pm59 °FPassing clouds.6 mph63%30.12 "Hg4 mi
6:05 pm59 °FPassing clouds.7 mph59%30.09 "Hg4 mi
5:35 pm61 °FPassing clouds.6 mph55%30.09 "Hg4 mi
5:05 pm64 °FPassing clouds.8 mph49%30.09 "Hg4 mi
4:35 pm64 °FPassing clouds.8 mph46%30.09 "Hg4 mi
4:05 pm68 °FPassing clouds.9 mph40%30.09 "Hg4 mi
3:35 pm68 °FPassing clouds.9 mph38%30.07 "Hg4 mi
3:05 pm70 °FPassing clouds.7 mph35%30.09 "Hg4 mi
2:35 pm70 °FPassing clouds.3 mph33%30.09 "Hg4 mi
2:05 pm68 °FPassing clouds.3 mph30%30.09 "Hg4 mi
1:35 pm68 °FPassing clouds.3 mph33%30.12 "Hg4 mi
1:05 pm68 °FPassing clouds.3 mph33%30.12 "Hg4 mi
Weather by CustomWeather, © 2017

See weather overviewHow to use our weather pages